Time,TemperatureF,DewpointF,PressureIn,WindDirection,WindDirectionDegrees,WindSpeedMPH,WindSpeedGustMPH,Humidity,HourlyPrecipIn,Conditions,Clouds,dailyrainin,SoftwareType,DateUTC
2013-03-22 00:02:00,31.5,5.0,29.71,West,261,10.0,18.0,32,0.00,,,0.04,meteohub,2013-03-22 06:02:00,
2013-03-22 00:12:00,31.3,4.8,29.70,SW,222,9.0,18.0,32,0.00,,,0.00,meteohub,2013-03-22 06:12:00,
2013-03-22 00:22:00,30.9,5.2,29.70,SW,224,7.0,16.0,33,0.00,,,0.00,meteohub,2013-03-22 06:22:00,
2013-03-22 00:32:00,30.7,5.0,29.70,SW,215,8.0,15.0,33,0.00,,,0.00,meteohub,2013-03-22 06:32:00,
2013-03-22 00:42:00,30.9,4.5,29.70,SW,228,11.0,18.0,32,0.00,,,0.00,meteohub,2013-03-22 06:42:00,
2013-03-22 00:52:00,30.6,4.3,29.70,SW,230,9.0,15.0,32,0.00,,,0.00,meteohub,2013-03-22 06:52:00,
2013-03-22 01:02:00,30.6,4.3,29.69,SW,233,15.0,16.0,32,0.00,,,0.00,meteohub,2013-03-22 07:02:00,
2013-03-22 01:12:00,30.6,4.3,29.70,SW,218,12.0,20.0,32,0.00,,,0.00,meteohub,2013-03-22 07:12:00,
2013-03-22 01:22:00,30.0,3.7,29.70,SW,230,14.0,19.0,32,0.00,,,0.00,meteohub,2013-03-22 07:22:00,
2013-03-22 01:32:00,30.0,4.5,29.70,SW,226,10.0,19.0,33,0.00,,,0.00,meteohub,2013-03-22 07:32:00,
2013-03-22 01:42:00,29.8,3.6,29.71,SW,234,10.0,19.0,32,0.00,,,0.00,meteohub,2013-03-22 07:42:00,
2013-03-22 01:52:00,29.8,4.3,29.71,SW,223,12.0,18.0,33,0.00,,,0.00,meteohub,2013-03-22 07:52:00,
2013-03-22 02:02:00,29.7,4.1,29.71,SW,228,11.0,18.0,33,0.00,,,0.00,meteohub,2013-03-22 08:02:00,
2013-03-22 02:12:00,29.3,4.5,29.71,SW,227,9.0,18.0,34,0.00,,,0.00,meteohub,2013-03-22 08:12:00,
2013-03-22 02:22:00,29.1,4.3,29.72,SW,224,7.0,18.0,34,0.00,,,0.00,meteohub,2013-03-22 08:22:00,
2013-03-22 02:32:00,28.9,4.1,29.71,SSW,210,11.0,18.0,34,0.00,,,0.00,meteohub,2013-03-22 08:32:00,
2013-03-22 02:42:00,28.8,3.9,29.71,SW,218,7.0,16.0,34,0.00,,,0.00,meteohub,2013-03-22 08:42:00,
2013-03-22 02:52:00,28.9,3.4,29.71,SW,234,11.0,17.0,33,0.00,,,0.00,meteohub,2013-03-22 08:52:00,
2013-03-22 03:02:00,28.4,3.6,29.70,WSW,237,10.0,16.0,34,0.00,,,0.00,meteohub,2013-03-22 09:02:00,
2013-03-22 03:12:00,28.4,3.6,29.70,SSW,208,9.0,16.0,34,0.00,,,0.00,meteohub,2013-03-22 09:12:00,
2013-03-22 03:22:00,28.0,3.9,29.70,SSW,205,9.0,13.0,35,0.00,,,0.00,meteohub,2013-03-22 09:22:00,
2013-03-22 03:32:00,28.0,3.9,29.70,SW,214,10.0,14.0,35,0.00,,,0.00,meteohub,2013-03-22 09:32:00,
2013-03-22 03:42:00,27.5,4.1,29.70,SW,232,11.0,16.0,36,0.00,,,0.00,meteohub,2013-03-22 09:42:00,
2013-03-22 03:52:00,27.7,4.3,29.70,SW,229,13.0,17.0,36,0.00,,,0.00,meteohub,2013-03-22 09:52:00,
2013-03-22 04:02:00,27.1,4.3,29.70,SW,228,11.0,16.0,37,0.00,,,0.00,meteohub,2013-03-22 10:02:00,
2013-03-22 04:12:00,27.0,4.1,29.70,SW,222,6.0,13.0,37,0.00,,,0.00,meteohub,2013-03-22 10:12:00,
2013-03-22 04:22:00,26.8,3.9,29.70,SW,224,6.0,13.0,37,0.00,,,0.00,meteohub,2013-03-22 10:22:00,
2013-03-22 04:32:00,26.8,3.4,29.70,SW,227,7.0,12.0,36,0.00,,,0.00,meteohub,2013-03-22 10:32:00,
2013-03-22 04:42:00,26.8,3.4,29.70,WSW,240,7.0,13.0,36,0.00,,,0.00,meteohub,2013-03-22 10:42:00,
2013-03-22 04:52:00,26.8,2.8,29.70,WSW,240,7.0,15.0,35,0.00,,,0.00,meteohub,2013-03-22 10:52:00,
2013-03-22 05:02:00,27.0,3.0,29.70,SW,234,7.0,15.0,35,0.00,,,0.00,meteohub,2013-03-22 11:02:00,
2013-03-22 05:12:00,26.8,2.8,29.70,WSW,240,8.0,15.0,35,0.00,,,0.00,meteohub,2013-03-22 11:12:00,
2013-03-22 05:22:00,26.8,2.1,29.71,SW,226,9.0,15.0,34,0.00,,,0.00,meteohub,2013-03-22 11:22:00,
2013-03-22 05:32:00,26.6,1.9,29.71,SSW,211,5.0,11.0,34,0.00,,,0.00,meteohub,2013-03-22 11:32:00,
2013-03-22 05:42:00,26.2,1.8,29.71,SSW,212,5.0,12.0,34,0.00,,,0.00,meteohub,2013-03-22 11:42:00,
2013-03-22 05:52:00,26.2,1.0,29.71,SSW,210,7.0,9.0,33,0.00,,,0.00,meteohub,2013-03-22 11:52:00,
2013-03-22 06:02:00,26.2,1.8,29.72,SW,220,7.0,9.0,34,0.00,,,0.00,meteohub,2013-03-22 12:02:00,
2013-03-22 06:12:00,25.7,1.2,29.72,SW,220,4.0,9.0,34,0.00,,,0.00,meteohub,2013-03-22 12:12:00,
2013-03-22 06:22:00,25.3,1.6,29.73,SW,220,1.0,7.0,35,0.00,,,0.00,meteohub,2013-03-22 12:22:00,
2013-03-22 06:32:00,25.2,1.9,29.73,SW,220,3.0,5.0,36,0.00,,,0.00,meteohub,2013-03-22 12:32:00,
2013-03-22 06:42:00,25.5,1.6,29.73,SW,220,3.0,8.0,35,0.00,,,0.00,meteohub,2013-03-22 12:42:00,
2013-03-22 06:52:00,25.2,1.9,29.73,SW,220,2.0,8.0,36,0.00,,,0.00,meteohub,2013-03-22 12:52:00,
2013-03-22 07:02:00,24.1,3.7,29.73,SW,220,3.0,3.0,41,0.00,,,0.00,meteohub,2013-03-22 13:02:00,
2013-03-22 07:12:00,23.0,6.6,29.73,SW,220,3.0,6.0,49,0.00,,,0.00,meteohub,2013-03-22 13:12:00,
2013-03-22 07:22:00,22.8,5.2,29.73,SW,220,0.0,4.0,46,0.00,,,0.00,meteohub,2013-03-22 13:22:00,
2013-03-22 07:32:00,23.0,4.8,29.74,SW,220,2.0,2.0,45,0.00,,,0.00,meteohub,2013-03-22 13:32:00,
2013-03-22 07:42:00,24.3,9.7,29.74,SW,220,1.0,3.0,53,0.00,,,0.00,meteohub,2013-03-22 13:42:00,
2013-03-22 07:52:00,25.7,16.9,29.74,SSW,210,3.0,4.0,69,0.00,,,0.00,meteohub,2013-03-22 13:52:00,
2013-03-22 08:02:00,26.4,19.6,29.74,South,172,4.0,7.0,75,0.00,,,0.00,meteohub,2013-03-22 14:02:00,
2013-03-22 08:12:00,26.6,20.1,29.74,ESE,106,5.0,8.0,76,0.00,,,0.00,meteohub,2013-03-22 14:12:00,
2013-03-22 08:22:00,26.1,19.8,29.74,ESE,110,3.0,11.0,77,0.00,,,0.00,meteohub,2013-03-22 14:22:00,
2013-03-22 08:32:00,25.9,19.8,29.74,ESE,110,3.0,9.0,77,0.00,,,0.00,meteohub,2013-03-22 14:32:00,
2013-03-22 08:42:00,26.1,20.5,29.74,ESE,109,5.0,8.0,79,0.00,,,0.00,meteohub,2013-03-22 14:42:00,
2013-03-22 08:52:00,27.0,20.1,29.74,ESE,110,8.0,8.0,75,0.00,,,0.00,meteohub,2013-03-22 14:52:00,
2013-03-22 09:02:00,27.1,19.6,29.73,ESE,112,9.0,11.0,73,0.00,,,0.00,meteohub,2013-03-22 15:02:00,
2013-03-22 09:12:00,28.9,18.3,29.73,SE,125,9.0,11.0,64,0.00,,,0.00,meteohub,2013-03-22 15:12:00,
2013-03-22 09:22:00,30.4,18.5,29.72,ESE,121,8.0,11.0,61,0.00,,,0.00,meteohub,2013-03-22 15:22:00,
2013-03-22 09:32:00,31.3,18.7,29.72,ESE,112,12.0,12.0,59,0.00,,,0.00,meteohub,2013-03-22 15:32:00,
2013-03-22 09:42:00,31.8,16.2,29.71,ESE,103,9.0,12.0,52,0.00,,,0.00,meteohub,2013-03-22 15:42:00,
2013-03-22 09:52:00,33.1,16.0,29.70,ESE,119,10.0,16.0,49,0.00,,,0.00,meteohub,2013-03-22 15:52:00,
2013-03-22 10:02:00,33.8,14.7,29.70,ESE,112,11.0,16.0,45,0.00,,,0.00,meteohub,2013-03-22 16:02:00,
2013-03-22 10:12:00,34.5,9.7,29.71,WSW,237,6.0,13.0,35,0.00,,,0.00,meteohub,2013-03-22 16:12:00,
2013-03-22 10:22:00,36.3,0.1,29.71,WSW,247,7.0,29.0,21,0.00,,,0.00,meteohub,2013-03-22 16:22:00,
2013-03-22 10:32:00,36.1,-1.1,29.71,WSW,248,5.0,29.0,20,0.00,,,0.00,meteohub,2013-03-22 16:32:00,
2013-03-22 10:42:00,36.9,-1.7,29.70,West,276,18.0,19.0,19,0.00,,,0.00,meteohub,2013-03-22 16:42:00,
2013-03-22 10:52:00,37.0,-0.4,29.70,West,264,11.0,21.0,20,0.00,,,0.00,meteohub,2013-03-22 16:52:00,
2013-03-22 11:02:00,38.1,1.6,29.70,WSW,245,9.0,21.0,21,0.00,,,0.00,meteohub,2013-03-22 17:02:00,
2013-03-22 11:12:00,37.9,-0.8,29.69,WSW,245,14.0,19.0,19,0.00,,,0.00,meteohub,2013-03-22 17:12:00,
2013-03-22 11:22:00,37.9,0.5,29.69,SW,231,12.0,22.0,20,0.00,,,0.00,meteohub,2013-03-22 17:22:00,
2013-03-22 11:32:00,38.5,-0.2,29.68,SW,222,18.0,23.0,19,0.00,,,0.00,meteohub,2013-03-22 17:32:00,
2013-03-22 11:42:00,38.5,0.9,29.68,SSW,201,9.0,26.0,20,0.00,,,0.00,meteohub,2013-03-22 17:42:00,
2013-03-22 11:52:00,38.7,0.0,29.67,South,190,14.0,23.0,19,0.00,,,0.00,meteohub,2013-03-22 17:52:00,
2013-03-22 12:02:00,39.7,1.9,29.67,SSW,207,9.0,23.0,20,0.00,,,0.00,meteohub,2013-03-22 18:02:00,
2013-03-22 12:12:00,39.7,1.9,29.66,WSW,247,12.0,25.0,20,0.00,,,0.00,meteohub,2013-03-22 18:12:00,
2013-03-22 12:22:00,40.5,3.6,29.66,SW,232,12.0,25.0,21,0.00,,,0.00,meteohub,2013-03-22 18:22:00,
2013-03-22 12:32:00,40.3,4.5,29.65,SW,222,18.0,21.0,22,0.00,,,0.00,meteohub,2013-03-22 18:32:00,
2013-03-22 12:42:00,40.6,3.7,29.65,SW,222,11.0,23.0,21,0.00,,,0.00,meteohub,2013-03-22 18:42:00,
2013-03-22 12:52:00,41.2,3.2,29.64,WSW,251,7.0,23.0,20,0.00,,,0.00,meteohub,2013-03-22 18:52:00,
2013-03-22 13:02:00,41.4,5.4,29.63,SW,228,9.0,21.0,22,0.00,,,0.00,meteohub,2013-03-22 19:02:00,
2013-03-22 13:12:00,41.2,6.3,29.62,West,275,11.0,22.0,23,0.00,,,0.00,meteohub,2013-03-22 19:12:00,
2013-03-22 13:22:00,41.0,6.1,29.62,West,277,13.0,21.0,23,0.00,,,0.00,meteohub,2013-03-22 19:22:00,
2013-03-22 13:32:00,41.5,7.3,29.62,WNW,284,13.0,24.0,24,0.00,,,0.00,meteohub,2013-03-22 19:32:00,
2013-03-22 13:42:00,41.7,7.5,29.61,SW,220,18.0,23.0,24,0.00,,,0.00,meteohub,2013-03-22 19:42:00,
2013-03-22 13:52:00,41.7,7.5,29.60,WSW,249,20.0,22.0,24,0.00,,,0.00,meteohub,2013-03-22 19:52:00,
2013-03-22 14:02:00,41.2,8.1,29.60,West,259,17.0,31.0,25,0.00,,,0.00,meteohub,2013-03-22 20:02:00,
2013-03-22 14:12:00,41.2,8.1,29.60,SW,234,16.0,31.0,25,0.00,,,0.00,meteohub,2013-03-22 20:12:00,
2013-03-22 14:22:00,41.0,8.8,29.59,West,281,17.0,29.0,26,0.00,,,0.00,meteohub,2013-03-22 20:22:00,
2013-03-22 14:32:00,39.7,8.4,29.59,WSW,239,11.0,24.0,27,0.00,,,0.00,meteohub,2013-03-22 20:32:00,
2013-03-22 14:42:00,39.6,9.9,29.59,West,266,11.0,25.0,29,0.00,,,0.00,meteohub,2013-03-22 20:42:00,
2013-03-22 14:52:00,39.9,10.2,29.58,West,263,13.0,24.0,29,0.00,,,0.00,meteohub,2013-03-22 20:52:00,
2013-03-22 15:02:00,39.0,10.9,29.58,SW,228,14.0,24.0,31,0.00,,,0.00,meteohub,2013-03-22 21:02:00,
2013-03-22 15:12:00,40.6,11.7,29.58,WSW,249,11.0,21.0,30,0.00,,,0.00,meteohub,2013-03-22 21:12:00,
2013-03-22 15:22:00,40.5,12.2,29.58,SW,227,4.0,18.0,31,0.00,,,0.00,meteohub,2013-03-22 21:22:00,
2013-03-22 15:32:00,40.8,13.3,29.57,SW,215,15.0,18.0,32,0.00,,,0.00,meteohub,2013-03-22 21:32:00,
2013-03-22 15:42:00,40.3,12.0,29.58,SW,223,8.0,16.0,31,0.00,,,0.00,meteohub,2013-03-22 21:42:00,
2013-03-22 15:52:00,41.2,13.5,29.57,South,180,8.0,26.0,32,0.00,,,0.00,meteohub,2013-03-22 21:52:00,
2013-03-22 16:02:00,41.2,12.7,29.57,SW,216,11.0,17.0,31,0.00,,,0.00,meteohub,2013-03-22 22:02:00,
2013-03-22 16:12:00,41.2,11.3,29.56,SSW,207,14.0,20.0,29,0.00,,,0.00,meteohub,2013-03-22 22:12:00,
2013-03-22 16:22:00,40.6,12.4,29.56,South,174,9.0,20.0,31,0.00,,,0.00,meteohub,2013-03-22 22:22:00,
2013-03-22 16:32:00,40.3,12.7,29.55,South,179,16.0,16.0,32,0.00,,,0.00,meteohub,2013-03-22 22:32:00,
2013-03-22 16:42:00,39.0,13.1,29.55,South,185,13.0,18.0,34,0.00,,,0.00,meteohub,2013-03-22 22:42:00,
2013-03-22 16:52:00,39.4,11.3,29.55,SSW,213,7.0,22.0,31,0.00,,,0.00,meteohub,2013-03-22 22:52:00,
2013-03-22 17:02:00,40.6,13.1,29.55,SSW,210,7.0,17.0,32,0.00,,,0.00,meteohub,2013-03-22 23:02:00,
2013-03-22 17:12:00,40.3,11.3,29.55,South,185,4.0,11.0,30,0.00,,,0.00,meteohub,2013-03-22 23:12:00,
2013-03-22 17:22:00,39.7,11.5,29.54,SSW,198,10.0,11.0,31,0.00,,,0.00,meteohub,2013-03-22 23:22:00,
2013-03-22 17:32:00,40.3,7.2,29.55,WSW,239,12.0,14.0,25,0.00,,,0.00,meteohub,2013-03-22 23:32:00,
2013-03-22 17:42:00,40.5,6.4,29.55,WSW,257,17.0,25.0,24,0.00,,,0.00,meteohub,2013-03-22 23:42:00,
2013-03-22 17:52:00,39.7,5.9,29.55,West,274,8.0,25.0,24,0.00,,,0.00,meteohub,2013-03-22 23:52:00,
2013-03-22 18:02:00,39.6,6.6,29.56,West,262,9.0,22.0,25,0.00,,,0.00,meteohub,2013-03-23 00:02:00,
2013-03-22 18:12:00,39.4,5.5,29.55,West,259,14.0,25.0,24,0.00,,,0.00,meteohub,2013-03-23 00:12:00,
2013-03-22 18:22:00,39.2,6.3,29.56,West,277,20.0,25.0,25,0.00,,,0.00,meteohub,2013-03-23 00:22:00,
2013-03-22 18:32:00,37.9,11.3,29.57,NW,309,10.0,22.0,33,0.00,,,0.00,meteohub,2013-03-23 00:32:00,
2013-03-22 18:42:00,36.7,11.7,29.57,NW,320,7.0,17.0,35,0.00,,,0.00,meteohub,2013-03-23 00:42:00,
2013-03-22 18:52:00,35.6,12.6,29.57,West,274,9.0,19.0,38,0.00,,,0.00,meteohub,2013-03-23 00:52:00,
2013-03-22 19:02:00,35.4,13.5,29.58,NW,311,11.0,15.0,40,0.00,,,0.00,meteohub,2013-03-23 01:02:00,
2013-03-22 19:12:00,35.1,12.6,29.59,WNW,302,3.0,13.0,39,0.00,,,0.00,meteohub,2013-03-23 01:12:00,
2013-03-22 19:22:00,34.9,13.6,29.59,West,281,6.0,11.0,41,0.00,,,0.00,meteohub,2013-03-23 01:22:00,
2013-03-22 19:32:00,34.5,13.3,29.60,WNW,285,5.0,17.0,41,0.00,,,0.00,meteohub,2013-03-23 01:32:00,
2013-03-22 19:42:00,34.3,13.6,29.60,West,266,7.0,16.0,42,0.00,,,0.00,meteohub,2013-03-23 01:42:00,
2013-03-22 19:52:00,34.3,14.2,29.60,SW,220,6.0,15.0,43,0.00,,,0.00,meteohub,2013-03-23 01:52:00,
2013-03-22 20:02:00,33.6,15.1,29.60,SSW,204,7.0,11.0,46,0.00,,,0.00,meteohub,2013-03-23 02:02:00,
2013-03-22 20:12:00,33.4,15.8,29.60,SSW,200,6.0,11.0,48,0.00,,,0.00,meteohub,2013-03-23 02:12:00,
2013-03-22 20:22:00,32.9,17.2,29.60,South,187,5.0,14.0,52,0.00,,,0.00,meteohub,2013-03-23 02:22:00,
2013-03-22 20:32:00,32.2,17.4,29.60,SSW,194,4.0,14.0,54,0.00,,,0.00,meteohub,2013-03-23 02:32:00,
2013-03-22 20:42:00,32.5,16.9,29.60,SSW,194,3.0,12.0,52,0.00,,,0.00,meteohub,2013-03-23 02:42:00,
2013-03-22 20:52:00,32.4,16.3,29.60,SSW,194,1.0,12.0,51,0.00,,,0.00,meteohub,2013-03-23 02:52:00,
2013-03-22 21:02:00,32.0,16.0,29.60,SSW,194,0.0,4.0,51,0.00,,,0.00,meteohub,2013-03-23 03:02:00,
2013-03-22 21:12:00,31.1,15.4,29.60,SSW,194,2.0,2.0,52,0.00,,,0.00,meteohub,2013-03-23 03:12:00,
2013-03-22 21:22:00,30.7,14.7,29.60,SSW,194,4.0,4.0,51,0.00,,,0.00,meteohub,2013-03-23 03:22:00,
2013-03-22 21:32:00,31.3,14.7,29.61,SSW,194,4.0,5.0,50,0.00,,,0.00,meteohub,2013-03-23 03:32:00,
2013-03-22 21:42:00,31.8,14.4,29.62,SSW,201,2.0,6.0,48,0.00,,,0.00,meteohub,2013-03-23 03:42:00,
2013-03-22 21:52:00,32.5,12.6,29.63,WSW,238,5.0,12.0,43,0.00,,,0.00,meteohub,2013-03-23 03:52:00,
2013-03-22 22:02:00,33.8,7.7,29.63,WSW,249,12.0,14.0,33,0.00,,,0.00,meteohub,2013-03-23 04:02:00,
2013-03-22 22:12:00,34.2,5.9,29.64,West,264,12.0,20.0,30,0.00,,,0.00,meteohub,2013-03-23 04:12:00,
2013-03-22 22:22:00,33.4,6.1,29.65,West,269,14.0,24.0,31,0.00,,,0.00,meteohub,2013-03-23 04:22:00,
2013-03-22 22:32:00,32.4,8.4,29.66,WSW,244,15.0,24.0,36,0.00,,,0.00,meteohub,2013-03-23 04:32:00,
2013-03-22 22:42:00,31.6,8.4,29.68,WSW,240,16.0,23.0,37,0.00,,,0.00,meteohub,2013-03-23 04:42:00,
2013-03-22 22:52:00,31.6,7.2,29.67,West,264,12.0,21.0,35,0.00,,,0.00,meteohub,2013-03-23 04:52:00,
2013-03-22 23:02:00,30.9,8.8,29.68,WSW,245,14.0,22.0,39,0.00,,,0.00,meteohub,2013-03-23 05:02:00,
2013-03-22 23:12:00,30.6,7.9,29.67,WSW,253,12.0,22.0,38,0.00,,,0.00,meteohub,2013-03-23 05:12:00,
2013-03-22 23:22:00,30.2,7.0,29.68,West,259,14.0,18.0,37,0.00,,,0.00,meteohub,2013-03-23 05:22:00,
2013-03-22 23:32:00,29.8,7.9,29.68,West,266,5.0,16.0,39,0.00,,,0.00,meteohub,2013-03-23 05:32:00,
2013-03-22 23:42:00,29.3,8.6,29.67,West,268,9.0,16.0,41,0.00,,,0.00,meteohub,2013-03-23 05:42:00,
2013-03-22 23:52:00,28.8,8.6,29.66,West,275,8.0,14.0,42,0.00,,,0.00,meteohub,2013-03-23 05:52:00,